Location: Madrid
(40.4000°N, 3.6830°W)
Time: 21:09:07
(UTC+01:00)

ISS - Pass Details

Date: 28 March 2017
Orbit: 399 x 409 km, 51.6° (Epoch: 24 March)

Event Time Altitude Azimuth Distance (km) Brightness Sun altitude
Rises 22:29:00 0° 251° (WSW) 2,303 0.7 -21.7°
Reaches altitude 10° 22:31:09 10° 260° (W) 1,449 -0.3 -22.0°
Maximum altitude 22:34:13 37° 330° (NNW) 637 -2.5 -22.6°
Enters shadow 22:34:29 37° 344° (NNW) 649 -2.5 -22.6°
